Anniston, AL

5:24 AM CST on November 20, 2019 (GMT -0600)
Anniston Metro

Weather History for KANB - September, 2019

Change the Weather History Date:

Sunday, September 1, 2019

  Actual Average Record
Temperature  
Mean Temperature 79 °F 78 °F  
Max Temperature 88 °F 88 °F 101 °F (1957)
Min Temperature 69 °F 68 °F 54 °F (1946)
Cooling Degree Days 14    
Growing Degree Days 29 (Base 50)    
Moisture  
Dew Point 70 °F    
Average Humidity 78    
Maximum Humidity 97    
Minimum Humidity 59    
Precipitation  
Precipitation T in 0.10 in 3.08 in (1950)
Month to date precipitation T 0.10  
Year to date precipitation 39.17 35.02  
Sea Level Pressure  
Sea Level Pressure 30.09 in    
Wind  
Wind Speed 4 mph (ENE)    
Max Wind Speed 15 mph    
Max Gust Speed 20 mph    
Visibility 10 miles    
Events Rain    
T = Trace of Precipitation, MM = Missing Value Source: NWS Daily Summary

Daily Weather History Graph

Daily Weather History Graph

Search for Another Location

Airport or City:

Astronomy

Sep. 01, 2019 Rise Set
Actual Time 6:17 AM CDT 7:09 PM CDT
Civil Twilight 5:51 AM CDT 7:34 PM CDT
Nautical Twilight 5:21 AM CDT 8:04 PM CDT
Astronomical Twilight 4:50 AM CDT 8:35 PM CDT
Moon 8:41 AM CDT (9/1) 9:03 PM CDT (9/1)
Length of Visible Light 13h 42m
Length of Day
12h 51m
Waxing Crescent, 8% of the Moon is Illuminated
Sep 1
Waxing Crescent
Sep 5
First Quarter
Sep 13
Full
Sep 21
Last Quarter
Sep 28
New

Hourly Weather History & Observations

Time (CDT) Temp. Heat Index Dew Point Humidity Pressure Visibility Wind Dir Wind Speed Gust Speed Precip Events Conditions
12:53 AM 73.9 °F - 69.1 °F 85% 30.08 in 10.0 mi NE 6.9 mph - N/A   Clear
1:53 AM 72.0 °F - 69.1 °F 91% 30.08 in 10.0 mi NE 5.8 mph - N/A   Clear
2:53 AM 71.1 °F - 69.1 °F 93% 30.07 in 10.0 mi Calm Calm - N/A   Clear
3:53 AM 71.1 °F - 68.0 °F 90% 30.07 in 10.0 mi ENE 3.5 mph - N/A   Clear
4:53 AM 70.0 °F - 66.9 °F 90% 30.08 in 10.0 mi Calm Calm - N/A   Clear
5:53 AM 70.0 °F - 68.0 °F 93% 30.09 in 10.0 mi ESE 3.5 mph - N/A   Clear
6:53 AM 70.0 °F - 68.0 °F 93% 30.12 in 10.0 mi Calm Calm - N/A   Clear
7:53 AM 72.0 °F - 69.1 °F 91% 30.14 in 10.0 mi East 3.5 mph - N/A   Clear
8:25 AM 75.0 °F - 70.0 °F 84% 30.16 in 10.0 mi ENE 5.8 mph - N/A   Mostly Cloudy
8:40 AM 75.9 °F - 70.0 °F 82% 30.16 in 10.0 mi ENE 6.9 mph - N/A   Scattered Clouds
8:53 AM 77.0 °F - 70.0 °F 79% 30.13 in 10.0 mi ENE 6.9 mph - N/A   Partly Cloudy
9:11 AM 78.1 °F - 71.1 °F 79% 30.16 in 10.0 mi NE 5.8 mph - N/A   Mostly Cloudy
9:53 AM 79.0 °F - 71.1 °F 77% 30.14 in 10.0 mi NE 8.1 mph - N/A   Mostly Cloudy
10:49 AM 80.6 °F 83.9 °F 69.8 °F 70% 30.15 in 10.0 mi ESE 4.6 mph - N/A   Overcast
10:53 AM 81.0 °F 84.4 °F 70.0 °F 69% 30.12 in 10.0 mi Variable 4.6 mph - N/A   Overcast
11:53 AM 84.0 °F 88.4 °F 70.0 °F 63% 30.10 in 10.0 mi North - - N/A   Scattered Clouds
12:53 PM 88.0 °F 93.8 °F 71.1 °F 57% 30.08 in 10.0 mi NNE 5.8 mph - N/A   Partly Cloudy
1:53 PM 78.1 °F - 71.1 °F 79% 30.08 in 9.0 mi SE 9.2 mph - 0.00 in Rain Light Rain
2:53 PM 87.1 °F 92.0 °F 70.0 °F 57% 30.05 in 10.0 mi ENE 9.2 mph - 0.00 in   Clear
3:53 PM 88.0 °F 93.8 °F 71.1 °F 57% 30.03 in 10.0 mi East 8.1 mph - N/A   Partly Cloudy
4:53 PM 84.9 °F 88.8 °F 69.1 °F 59% 30.04 in 10.0 mi SE 10.4 mph - N/A   Clear
5:53 PM 82.9 °F 85.8 °F 68.0 °F 60% 30.04 in 10.0 mi ENE 6.9 mph - N/A   Partly Cloudy
6:53 PM 82.0 °F 85.9 °F 70.0 °F 67% 30.04 in 10.0 mi Calm Calm - N/A   Clear
8:53 PM 77.0 °F - 71.1 °F 82% 30.06 in 10.0 mi North 3.5 mph - N/A   Clear
9:53 PM 75.0 °F - 70.0 °F 84% 30.07 in 10.0 mi Calm Calm - N/A   Clear
10:53 PM 73.9 °F - 70.0 °F 87% 30.07 in 10.0 mi Calm Calm - N/A   Clear
11:53 PM 73.0 °F - 69.1 °F 87% 30.05 in 10.0 mi ENE 3.5 mph - N/A   Clear